SHLBYV-WX Weather Reports


time (UTC)temp
F
wind
direction
speed
knots
gust
knots
rain 1hr
in
rain 24hr
in
rain mn
in
humidity
%
barometer
mb
20260505211549 53 284 12.2 0.0 0.00 0.00 0.00 40 980.2
20260505210124 53 283 11.3 0.0 0.00 0.00 0.00 40 980.2
20260505204550 53 281 11.3 0.0 0.00 0.00 0.00 41 980.6
20260505203111 53 279 11.3 0.0 0.00 0.00 0.00 41 980.0
20260505201550 53 279 12.2 0.0 0.00 0.00 0.00 36 979.6
20260505200120 53 280 12.2 0.0 0.00 0.00 0.00 36 979.6
20260505194549 53 276 12.2 0.0 0.00 0.00 0.00 34 979.5
20260505193106 54 277 11.3 0.0 0.00 0.00 0.00 34 979.5
20260505191552 54 275 11.3 0.0 0.00 0.00 0.00 34 979.5
20260505190120 54 271 11.3 0.0 0.00 0.00 0.00 34 979.5
20260505184552 54 268 11.3 0.0 0.00 0.00 0.00 36 980.3
20260505183115 54 274 12.2 0.0 0.00 0.00 0.00 37 979.4
20260505181552 55 276 11.3 0.0 0.00 0.00 0.00 37 979.4
20260505180127 55 277 11.3 0.0 0.00 0.00 0.00 37 979.4
20260505174552 55 273 11.3 0.0 0.00 0.00 0.00 37 978.7
20260505173108 54 277 11.3 0.0 0.00 0.00 0.00 37 977.8
20260505171553 54 282 10.4 0.0 0.00 0.00 0.00 37 977.8
20260505170125 54 284 10.4 0.0 0.00 0.00 0.00 37 977.8
20260505164553 53 287 10.4 0.0 0.00 0.00 0.00 42 979.0
20260505163111 51 286 11.3 0.0 0.00 0.00 0.00 43 977.0
20260505161553 51 284 10.4 0.0 0.00 0.00 0.00 43 977.0
20260505160126 51 273 9.6 0.0 0.00 0.00 0.00 43 977.0
20260505153114 50 274 10.4 0.0 0.00 0.00 0.00 44 977.8
20260505151552 50 280 10.4 0.0 0.00 0.00 0.00 44 977.8
20260505150135 50 285 10.4 0.0 0.00 0.00 0.00 44 977.8
20260505140135 50 285 11.3 0.0 0.00 0.00 0.00 41 977.6
20260505130126 50 300 10.4 0.0 0.00 0.00 0.00 60 977.5
20260505124551 50 303 10.4 0.0 0.00 0.00 0.00 71 976.8
20260505123111 49 308 6.1 0.0 0.00 0.00 0.00 74 975.1
20260505121552 49 302 7.8 0.0 0.00 0.00 0.00 74 975.1
20260505120140 48 301 7.8 0.0 0.00 0.00 0.00 74 975.1
20260505114552 48 278 8.7 0.0 0.00 0.00 0.00 70 975.3
20260505113109 48 274 8.7 0.0 0.00 0.00 0.00 70 973.8
20260505111552 48 281 6.1 0.0 0.00 0.00 0.00 70 973.8
20260505110131 48 277 7.8 0.0 0.00 0.00 0.00 70 973.8
20260505101551 50 265 8.7 0.0 0.00 0.00 0.00 57 972.5
20260505100129 50 271 9.6 0.0 0.00 0.00 0.00 57 972.5
20260505094551 50 274 8.7 0.0 0.00 0.00 0.00 61 972.8
20260505093114 50 269 7.0 0.0 0.00 0.00 0.00 59 972.6
20260505091552 51 264 7.8 0.0 0.00 0.00 0.00 59 972.6
20260505090133 51 267 9.6 0.0 0.00 0.00 0.00 59 972.6
20260505084549 51 277 9.6 0.0 0.00 0.00 0.00 74 972.7
20260505083110 52 272 8.7 0.0 0.00 0.00 0.00 78 971.9
20260505081551 52 263 7.8 0.0 0.00 0.00 0.00 78 971.9
20260505080123 52 260 6.1 0.0 0.00 0.00 0.00 64 971.9
20260505074552 53 258 7.8 0.0 0.00 0.00 0.00 75 971.5
20260505073112 53 255 7.8 0.0 0.00 0.00 0.00 75 971.5
20260505071552 54 251 8.7 0.0 0.00 0.00 0.00 75 971.5
20260505070126 55 242 7.8 0.0 0.00 0.00 0.00 75 971.5
20260505064551 55 252 9.6 0.0 0.00 0.00 0.00 77 971.8
20260505063108 55 245 9.6 0.0 0.00 0.00 0.00 77 971.3
20260505061553 56 242 10.4 0.0 0.00 0.00 0.00 77 971.3
20260505060139 57 242 10.4 0.0 0.00 0.00 0.00 77 971.3
20260505054552 57 235 10.4 0.0 0.00 0.00 0.00 76 972.3
20260505053115 58 251 8.7 0.0 0.00 0.00 0.00 68 971.0
20260505051551 59 234 9.6 0.0 0.00 0.00 0.00 68 971.0
20260505050124 59 238 9.6 0.0 0.00 0.00 0.00 68 971.0
20260505041551 60 202 11.3 0.0 0.00 0.00 0.00 70 970.9
20260505040129 60 193 13.0 0.0 0.00 0.00 0.00 70 970.9
20260505034548 61 217 14.8 0.0 0.00 0.00 0.00 63 970.7
20260505033111 60 199 11.3 0.0 0.00 0.00 0.00 64 970.7
20260505031551 61 191 13.0 0.0 0.00 0.00 0.00 64 970.7
20260505030125 61 198 13.9 0.0 0.00 0.00 0.00 64 970.7
20260505024552 61 204 12.2 0.0 0.00 0.00 0.00 62 971.1
20260505023111 61 213 13.9 0.0 0.00 0.00 0.00 56 971.1
20260505021550 62 214 13.0 0.0 0.00 0.00 0.00 56 971.1
20260505020125 62 214 16.5 0.0 0.00 0.00 0.00 56 971.1
20260505014551 63 211 15.6 0.0 0.00 0.00 0.00 70 970.4
20260505013109 63 214 14.8 0.0 0.00 0.00 0.00 70 970.4
20260505011552 63 211 14.8 0.0 0.00 0.00 0.00 70 970.4
20260505010122 64 216 13.9 0.0 0.00 0.00 0.00 70 970.4
20260505004551 63 203 13.9 0.0 0.00 0.00 0.00 44 970.5
20260505003107 66 206 12.2 0.0 0.00 0.00 0.00 47 971.1
20260505001550 66 196 9.6 0.0 0.00 0.00 0.00 47 971.1
20260505000132 67 198 7.0 0.0 0.00 0.00 0.00 47 971.1
20260504234551 68 212 6.1 0.0 0.00 0.00 0.00 40 971.2
20260504233110 69 231 7.0 0.0 0.00 0.00 0.00 37 971.1
20260504231551 69 241 7.0 0.0 0.00 0.00 0.00 37 971.0
20260504230118 70 250 8.7 0.0 0.00 0.00 0.00 37 971.0
20260504224551 70 254 10.4 0.0 0.00 0.00 0.00 37 971.0
20260504223112 71 252 13.0 0.0 0.00 0.00 0.00 39 971.1
20260504221551 71 253 13.0 0.0 0.00 0.00 0.00 39 971.1
20260504220128 72 250 13.9 0.0 0.00 0.00 0.00 39 971.1
20260504214550 72 243 15.6 0.0 0.00 0.00 0.00 38 972.2
20260504213112 72 235 15.6 0.0 0.00 0.00 0.00 38 972.2